SCOUT A DEB, 2889

Orbit data source: Space-Track

SCOUT A DEB, 2889 is space debris in LEO originally from a launch on Fri, 28 Jan 1966 UTC launched from the Air Force Western Test Range (AFWTR). Debris objects in space refer to the collection of defunct objects orbiting the Earth. Examples of debris include non-operational satellites, rocket bodies, and fragments generated from explosions, collisions, or faulty payload assembly.

Loading next visibility...
SCOUT A DEB details
Identifier
2889, 1966-005E
Orbit
LEO
Last TLE update14 hours ago
Origin
Flag of USUSN NAVAIR (US)
ManufacturerUnknown
MissionSpacecraft
Bus & MotorUnknown
MassUnknown
Launch date (UTC)
1966-01-28 (59 years ago)
Launch vehicleUnknown
Launch site
Air Force Western Test Range (AFWTR)
Object type
Payload
Rocket body
Debris
Shape & HBRUnknown
Radar Cross SectionSmall (<0.1 m²)

Expand to show TLE details & history

TLE from 14 hours ago
0 SCOUT A DEB
1  2889U 66005E   25023.15946406  .00000171  00000-0  38039-3 0  9996
2  2889  89.5485 179.9727 0168456 111.7568 298.5545 13.17909978769665
Epoch: 2025-01-23T03:49Z
Definitive object data (Epoch: 2025-01-23T03:49:37.694Z)
Latitude48.68878°
Longitude0.33578°
Altitude1,141.116 km
Speed7.315 km/s
True Right ascension12h 01m 56s
True Declination48° 31' 37"
Sunlit
Object was in full shadow at TLE epoch
Visualization TLE readout
Latitude-30.52273°
Longitude-0.46565°
Altitude1,301.589 km
Speed7.158 km/s
Apparent Right ascension10h 00m 23s
Apparent Declination-40° 12' 48"
Sunlit
Object is in daylight
Visualization observer readout
Local Sidereal Time19:12:57
Azimuth255.664° W
Elevation-58.27°
Doppler factor1
Orbital elements
Apogee altitude1,317.296 km
Perigee altitude1,062.323 km
Semi-major axis7,567.947 km
Eccentricity0.0168456
Inclination89.5485°
RAAN179.9727°
Arg. of periapsis111.7568°
True anomaly296.84196°
Mean anomaly298.5545°
Eccentric anomaly297.69993°
Mean motion3.29667 °/min
BSTAR0.00038039
Orbital period109.2 mins
Loading maneuver chart data...
Loading historical data...
Loading historical data...
Loading historical data...
Loading historical data...
Loading historical data...
Loading historical data...
Loading historical data...

SCOUT A DEB Visibility forecast

Observer location: undefined°, undefined

Span
Click to sort rows by Start time (UTC) header in descending order
Start Az.
Max El. time (UTC)
Max El. Az.
Max El.
End time (UTC)
End Az.
12 mins2025-01-23 22:24:08.724Z7.214° NNE2025-01-23 22:30:08.724Z107.473° ESE43.251°2025-01-23 22:36:08.724Z173.849° S
6 mins2025-01-24 00:16:08.724Z310.244° NW2025-01-24 00:18:08.724Z289.141° WNW16.755°2025-01-24 00:22:08.724Z250.799° W
5 mins2025-01-24 08:55:08.724Z90.742° ESE2025-01-24 08:57:08.724Z72.681° E13.646°2025-01-24 09:00:08.724Z45.354° ENE
12 mins2025-01-24 10:40:08.724Z176.485° S2025-01-24 10:45:08.724Z176.966° S44.623°2025-01-24 10:52:08.724Z358.536° N
4 mins2025-01-24 12:34:08.724Z272.016° WNW2025-01-24 12:35:08.724Z281.203° WNW13.26°2025-01-24 12:38:08.724Z308.466° NW
|